Terminal Aerodrome Forecast
Issued by NWS Cheyenne, WY

Home | Current Version | Previous Version | Text Only | Print | Product List | Glossary On
Versions: 1 2 3 4 5 6 7 8 9 10 11 12 13 14 15 16 17 18 19 20 21 22 23 24 25 26 27 28 29 30 31 32 33 34 35 36 37 38 39 40 41 42 43 44 45 46 47 48 49 50
000
FTUS45 KCYS 171123
TAFCYS
TAF
KCYS 171123Z 1712/1812 VRB05KT 4SM -SN BR OVC003
     FM171600 22010KT P6SM BKN015
     FM171900 28013G23KT P6SM SCT020 BKN200
     FM180000 26012KT P6SM SCT200=

USA.gov is the U.S. government's official web portal to all federal, state and local government web resources and services.